| time (UTC) | temp F | wind direction | speed MPH | gust MPH | rain 1hr in | rain 24hr in | rain mn in | humidity % | barometer mb |
| 20260510204026 | 82 | 99 | 0.0 | 0.0 | 0.00 | 0.23 | 0.17 | 59 | 1017.0 |
| 20260510203527 | 82 | 173 | 0.0 | 0.0 | 0.00 | 0.23 | 0.17 | 59 | 1017.1 |
| 20260510203035 | 82 | 121 | 0.0 | 0.0 | 0.00 | 0.23 | 0.17 | 58 | 1017.1 |
| 20260510202524 | 83 | 141 | 0.0 | 0.0 | 0.00 | 0.23 | 0.17 | 58 | 1017.1 |
| 20260510202023 | 83 | 143 | 0.0 | 0.0 | 0.00 | 0.23 | 0.17 | 58 | 1017.1 |
| 20260510201522 | 83 | 77 | 0.0 | 0.0 | 0.00 | 0.23 | 0.17 | 58 | 1017.1 |
| 20260510201022 | 83 | 107 | 0.0 | 0.0 | 0.00 | 0.23 | 0.17 | 58 | 1017.2 |
| 20260510200521 | 83 | 111 | 0.0 | 0.0 | 0.00 | 0.23 | 0.17 | 58 | 1017.3 |
| 20260510200021 | 83 | 94 | 0.0 | 0.0 | 0.00 | 0.23 | 0.17 | 58 | 1017.3 |
| 20260510195520 | 83 | 198 | 0.0 | 0.0 | 0.00 | 0.23 | 0.17 | 57 | 1017.2 |
| 20260510195019 | 83 | 117 | 0.0 | 0.0 | 0.00 | 0.23 | 0.17 | 57 | 1017.3 |
| 20260510194521 | 83 | 183 | 0.0 | 0.0 | 0.00 | 0.23 | 0.17 | 57 | 1017.3 |
| 20260510194019 | 84 | 129 | 0.0 | 0.0 | 0.00 | 0.23 | 0.17 | 57 | 1017.3 |
| 20260510193519 | 84 | 109 | 0.0 | 0.0 | 0.00 | 0.23 | 0.17 | 58 | 1017.3 |
| 20260510193017 | 84 | 90 | 0.0 | 0.0 | 0.00 | 0.23 | 0.17 | 58 | 1017.2 |
| 20260510192517 | 84 | 179 | 0.0 | 0.0 | 0.00 | 0.23 | 0.17 | 58 | 1017.3 |
| 20260510192015 | 83 | 136 | 0.0 | 0.0 | 0.00 | 0.23 | 0.17 | 58 | 1017.4 |
| 20260510191516 | 83 | 126 | 0.0 | 0.0 | 0.00 | 0.23 | 0.17 | 58 | 1017.5 |
| 20260510191014 | 83 | 164 | 0.0 | 0.0 | 0.00 | 0.23 | 0.17 | 57 | 1017.5 |
| 20260510190513 | 83 | 135 | 0.0 | 0.0 | 0.00 | 0.23 | 0.17 | 57 | 1017.6 |
| 20260510190012 | 83 | 133 | 0.0 | 0.0 | 0.00 | 0.23 | 0.17 | 58 | 1017.7 |
| 20260510185512 | 83 | 121 | 0.0 | 0.0 | 0.00 | 0.23 | 0.17 | 57 | 1017.7 |
| 20260510185012 | 84 | 123 | 0.0 | 0.0 | 0.00 | 0.23 | 0.17 | 57 | 1017.7 |
| 20260510184514 | 84 | 122 | 0.0 | 0.0 | 0.00 | 0.23 | 0.17 | 57 | 1017.7 |
| 20260510184011 | 84 | 91 | 0.0 | 0.0 | 0.00 | 0.23 | 0.17 | 56 | 1017.8 |
| 20260510183510 | 84 | 112 | 0.0 | 0.0 | 0.00 | 0.23 | 0.17 | 57 | 1017.8 |
| 20260510183025 | 84 | 124 | 0.0 | 0.0 | 0.00 | 0.23 | 0.17 | 57 | 1017.8 |
| 20260510182508 | 84 | 117 | 0.0 | 0.0 | 0.00 | 0.23 | 0.17 | 57 | 1017.8 |
| 20260510182008 | 84 | 190 | 0.0 | 0.0 | 0.00 | 0.23 | 0.17 | 57 | 1017.8 |
| 20260510181507 | 84 | 118 | 0.0 | 0.0 | 0.00 | 0.23 | 0.17 | 57 | 1017.8 |
| 20260510181007 | 84 | 106 | 0.0 | 0.0 | 0.00 | 0.23 | 0.17 | 56 | 1017.8 |
| 20260510180513 | 84 | 101 | 0.0 | 0.0 | 0.00 | 0.23 | 0.17 | 55 | 1017.9 |
| 20260510180006 | 84 | 160 | 0.0 | 0.0 | 0.00 | 0.23 | 0.17 | 56 | 1017.9 |
| 20260510175505 | 83 | 219 | 0.0 | 0.0 | 0.00 | 0.23 | 0.17 | 58 | 1017.9 |
| 20260510175004 | 84 | 129 | 0.0 | 0.0 | 0.00 | 0.23 | 0.17 | 57 | 1017.9 |
| 20260510174505 | 84 | 150 | 0.0 | 0.0 | 0.00 | 0.23 | 0.17 | 56 | 1017.9 |
| 20260510174007 | 84 | 139 | 0.0 | 0.0 | 0.00 | 0.23 | 0.17 | 58 | 1017.9 |
| 20260510173504 | 84 | 91 | 0.0 | 0.0 | 0.00 | 0.23 | 0.17 | 58 | 1017.9 |
| 20260510173003 | 84 | 174 | 0.0 | 0.0 | 0.00 | 0.23 | 0.17 | 57 | 1018.0 |
| 20260510172503 | 85 | 147 | 0.0 | 0.0 | 0.00 | 0.23 | 0.17 | 56 | 1018.0 |
| 20260510172103 | 85 | 103 | 0.0 | 0.0 | 0.00 | 0.23 | 0.17 | 55 | 1018.1 |
| 20260510171500 | 85 | 130 | 0.0 | 0.0 | 0.00 | 0.23 | 0.17 | 56 | 1018.1 |
| 20260510171001 | 85 | 75 | 0.0 | 0.0 | 0.00 | 0.23 | 0.17 | 55 | 1018.3 |
| 20260510170559 | 86 | 156 | 0.0 | 0.0 | 0.00 | 0.23 | 0.17 | 53 | 1018.3 |
| 20260510170111 | 86 | 173 | 0.0 | 0.0 | 0.00 | 0.23 | 0.17 | 58 | 1018.4 |
| 20260510165557 | 85 | 127 | 0.0 | 0.0 | 0.00 | 0.23 | 0.17 | 57 | 1018.5 |
| 20260510165056 | 85 | 127 | 0.0 | 0.0 | 0.00 | 0.23 | 0.17 | 58 | 1018.5 |
| 20260510164600 | 85 | 142 | 0.0 | 0.0 | 0.00 | 0.23 | 0.17 | 58 | 1018.6 |
| 20260510164056 | 84 | 93 | 0.0 | 0.0 | 0.00 | 0.23 | 0.17 | 59 | 1018.7 |
| 20260510163554 | 84 | 115 | 0.0 | 0.0 | 0.00 | 0.23 | 0.17 | 59 | 1018.7 |
| 20260510163054 | 84 | 186 | 0.0 | 0.0 | 0.00 | 0.23 | 0.17 | 59 | 1018.7 |
| 20260510162551 | 85 | 128 | 0.0 | 0.0 | 0.00 | 0.23 | 0.17 | 58 | 1018.8 |
| 20260510162050 | 85 | 105 | 0.0 | 0.0 | 0.00 | 0.23 | 0.17 | 58 | 1018.7 |
| 20260510161552 | 85 | 137 | 0.0 | 0.0 | 0.00 | 0.23 | 0.17 | 59 | 1018.6 |
| 20260510161051 | 84 | 138 | 0.0 | 0.0 | 0.00 | 0.23 | 0.17 | 59 | 1018.7 |
| 20260510160548 | 84 | 127 | 0.0 | 0.0 | 0.00 | 0.23 | 0.17 | 60 | 1018.8 |
| 20260510160058 | 84 | 122 | 0.0 | 0.0 | 0.00 | 0.23 | 0.17 | 60 | 1018.9 |
| 20260510155546 | 84 | 125 | 0.0 | 0.0 | 0.00 | 0.23 | 0.17 | 60 | 1018.9 |
| 20260510155050 | 84 | 108 | 0.0 | 0.0 | 0.00 | 0.23 | 0.17 | 60 | 1018.9 |
| 20260510154552 | 85 | 70 | 0.0 | 0.0 | 0.00 | 0.23 | 0.17 | 59 | 1018.8 |
| 20260510154048 | 84 | 120 | 0.0 | 0.0 | 0.00 | 0.23 | 0.17 | 60 | 1019.0 |
| 20260510153543 | 84 | 96 | 0.0 | 0.0 | 0.00 | 0.23 | 0.17 | 59 | 1018.9 |
| 20260510153048 | 84 | 112 | 0.0 | 0.0 | 0.00 | 0.23 | 0.17 | 61 | 1018.9 |
| 20260510152541 | 84 | 84 | 0.0 | 0.0 | 0.00 | 0.23 | 0.17 | 59 | 1019.0 |
| 20260510152042 | 84 | 118 | 0.0 | 0.0 | 0.00 | 0.23 | 0.17 | 60 | 1019.1 |
| 20260510151542 | 84 | 110 | 0.0 | 0.0 | 0.00 | 0.23 | 0.17 | 61 | 1019.2 |
| 20260510151040 | 84 | 98 | 0.0 | 0.0 | 0.00 | 0.23 | 0.17 | 61 | 1019.2 |
| 20260510150540 | 85 | 114 | 0.0 | 0.0 | 0.00 | 0.23 | 0.17 | 61 | 1019.1 |
| 20260510150039 | 84 | 136 | 0.0 | 0.0 | 0.00 | 0.23 | 0.17 | 61 | 1019.2 |
| 20260510145538 | 84 | 131 | 0.0 | 0.0 | 0.00 | 0.23 | 0.17 | 61 | 1019.3 |
| 20260510145039 | 84 | 93 | 0.0 | 0.0 | 0.00 | 0.23 | 0.17 | 60 | 1019.2 |
| 20260510144537 | 83 | 114 | 0.0 | 0.0 | 0.00 | 0.23 | 0.17 | 61 | 1019.3 |
| 20260510144035 | 83 | 91 | 0.0 | 0.0 | 0.00 | 0.23 | 0.17 | 61 | 1019.4 |
| 20260510143535 | 84 | 118 | 0.0 | 0.0 | 0.00 | 0.23 | 0.17 | 60 | 1019.4 |
| 20260510143039 | 84 | 139 | 0.0 | 0.0 | 0.00 | 0.23 | 0.17 | 61 | 1019.3 |
| 20260510142537 | 84 | 141 | 0.0 | 0.0 | 0.00 | 0.23 | 0.17 | 61 | 1019.5 |
| 20260510142031 | 83 | 146 | 0.0 | 0.0 | 0.00 | 0.23 | 0.17 | 61 | 1019.6 |
| 20260510141529 | 83 | 135 | 0.0 | 0.0 | 0.00 | 0.23 | 0.17 | 62 | 1019.6 |
| 20260510141029 | 82 | 163 | 0.0 | 0.0 | 0.00 | 0.23 | 0.17 | 62 | 1019.7 |
| 20260510140528 | 82 | 89 | 0.0 | 0.0 | 0.00 | 0.23 | 0.17 | 63 | 1019.7 |
| 20260510140028 | 81 | 96 | 0.0 | 0.0 | 0.00 | 0.23 | 0.17 | 64 | 1019.7 |
| 20260510135526 | 82 | 146 | 0.0 | 0.0 | 0.00 | 0.23 | 0.17 | 63 | 1019.7 |
| 20260510135026 | 82 | 51 | 0.0 | 0.0 | 0.00 | 0.23 | 0.17 | 62 | 1019.6 |
| 20260510134524 | 82 | 150 | 0.0 | 0.0 | 0.00 | 0.23 | 0.17 | 63 | 1019.6 |
| 20260510134022 | 82 | 97 | 0.0 | 0.0 | 0.00 | 0.23 | 0.17 | 63 | 1019.6 |
| 20260510133524 | 81 | 117 | 0.0 | 0.0 | 0.00 | 0.23 | 0.17 | 64 | 1019.5 |
| 20260510133021 | 81 | 98 | 0.0 | 0.0 | 0.00 | 0.23 | 0.17 | 64 | 1019.4 |
| 20260510132519 | 81 | 117 | 0.0 | 0.0 | 0.00 | 0.23 | 0.17 | 64 | 1019.5 |
| 20260510132020 | 81 | 108 | 0.0 | 0.0 | 0.00 | 0.23 | 0.17 | 64 | 1019.4 |
| 20260510131518 | 81 | 159 | 0.0 | 0.0 | 0.00 | 0.23 | 0.17 | 63 | 1019.5 |
| 20260510131017 | 81 | 148 | 0.0 | 0.0 | 0.00 | 0.23 | 0.17 | 64 | 1019.5 |
| 20260510130515 | 80 | 153 | 0.0 | 0.0 | 0.00 | 0.23 | 0.17 | 66 | 1019.5 |
| 20260510130017 | 80 | 123 | 0.0 | 0.0 | 0.00 | 0.23 | 0.17 | 66 | 1019.4 |
| 20260510125513 | 80 | 153 | 0.0 | 0.0 | 0.00 | 0.23 | 0.17 | 66 | 1019.4 |
| 20260510125012 | 80 | 120 | 0.0 | 0.0 | 0.00 | 0.23 | 0.17 | 66 | 1019.3 |
| 20260510124515 | 79 | 105 | 0.0 | 0.0 | 0.00 | 0.23 | 0.17 | 67 | 1019.2 |
| 20260510124011 | 79 | 109 | 0.0 | 0.0 | 0.00 | 0.23 | 0.17 | 67 | 1019.3 |
| 20260510123510 | 79 | 113 | 0.0 | 0.0 | 0.00 | 0.23 | 0.17 | 68 | 1019.2 |
| 20260510123010 | 78 | 111 | 0.0 | 0.0 | 0.00 | 0.23 | 0.17 | 68 | 1019.1 |
| 20260510122505 | 79 | 105 | 0.0 | 0.0 | 0.00 | 0.23 | 0.17 | 68 | 1019.0 |
| 20260510122004 | 79 | 89 | 0.0 | 0.0 | 0.00 | 0.23 | 0.17 | 67 | 1018.9 |
| 20260510121603 | 79 | 92 | 0.0 | 0.0 | 0.00 | 0.23 | 0.17 | 68 | 1018.8 |
| 20260510121003 | 78 | 120 | 0.0 | 0.0 | 0.00 | 0.23 | 0.17 | 67 | 1018.8 |
| 20260510120600 | 78 | 141 | 0.0 | 0.0 | 0.00 | 0.23 | 0.17 | 68 | 1018.8 |
| 20260510120059 | 78 | 149 | 0.0 | 0.0 | 0.00 | 0.23 | 0.17 | 69 | 1018.8 |
| 20260510115559 | 77 | 156 | 0.0 | 0.0 | 0.00 | 0.23 | 0.17 | 71 | 1018.8 |
| 20260510115102 | 77 | 138 | 0.0 | 0.0 | 0.00 | 0.23 | 0.17 | 74 | 1018.8 |
| 20260510114554 | 76 | 136 | 0.0 | 0.0 | 0.00 | 0.23 | 0.17 | 74 | 1018.8 |
| 20260510114052 | 75 | 161 | 0.0 | 0.0 | 0.00 | 0.23 | 0.17 | 76 | 1018.7 |
| 20260510113554 | 75 | 121 | 0.0 | 0.0 | 0.00 | 0.23 | 0.17 | 77 | 1018.6 |
| 20260510113059 | 75 | 161 | 0.0 | 0.0 | 0.00 | 0.23 | 0.17 | 78 | 1018.6 |
| 20260510112550 | 75 | 194 | 0.0 | 0.0 | 0.00 | 0.23 | 0.17 | 79 | 1018.6 |
| 20260510112048 | 74 | 195 | 0.0 | 0.0 | 0.00 | 0.23 | 0.17 | 79 | 1018.5 |
| 20260510111604 | 74 | 154 | 0.0 | 0.0 | 0.00 | 0.23 | 0.17 | 79 | 1018.6 |
| 20260510111048 | 74 | 148 | 0.0 | 0.0 | 0.00 | 0.23 | 0.17 | 79 | 1018.5 |
| 20260510110546 | 74 | 141 | 0.0 | 0.0 | 0.00 | 0.23 | 0.17 | 79 | 1018.5 |
| 20260510110045 | 74 | 140 | 0.0 | 0.0 | 0.00 | 0.23 | 0.17 | 79 | 1018.4 |
| 20260510105544 | 74 | 125 | 0.0 | 0.0 | 0.00 | 0.23 | 0.17 | 79 | 1018.4 |
| 20260510105043 | 74 | 124 | 0.0 | 0.0 | 0.00 | 0.23 | 0.17 | 79 | 1018.3 |
| 20260510104559 | 73 | 93 | 0.0 | 0.0 | 0.00 | 0.23 | 0.17 | 79 | 1018.4 |
| 20260510104040 | 0 | 0.0 | 0.0 | 0.00 | 0.23 | 0.17 | 1018.5 | ||
| 20260510103538 | 0 | 0.0 | 0.0 | 0.00 | 0.23 | 0.17 | 1018.4 | ||
| 20260510103039 | 0 | 0.0 | 0.0 | 0.00 | 0.23 | 0.17 | 1018.3 | ||
| 20260510102534 | 0 | 0.0 | 0.0 | 0.00 | 0.23 | 0.17 | 1018.3 | ||
| 20260510102033 | 0 | 0.0 | 0.0 | 0.00 | 0.23 | 0.17 | 1018.3 | ||
| 20260510101531 | 0 | 0.0 | 0.0 | 0.00 | 0.23 | 0.17 | 1018.2 | ||
| 20260510101029 | 0 | 0.0 | 0.0 | 0.00 | 0.23 | 0.17 | 1018.0 | ||
| 20260510100528 | 0 | 0.0 | 0.0 | 0.00 | 0.23 | 0.17 | 1018.0 | ||
| 20260510100026 | 0 | 0.0 | 0.0 | 0.00 | 0.23 | 0.17 | 1017.8 | ||
| 20260510095524 | 0 | 0.0 | 0.0 | 0.00 | 0.23 | 0.17 | 1017.8 | ||
| 20260510095027 | 0 | 0.0 | 0.0 | 0.00 | 0.23 | 0.17 | 1017.7 | ||
| 20260510094522 | 0 | 0.0 | 0.0 | 0.00 | 0.23 | 0.17 | 1017.7 | ||
| 20260510094019 | 0 | 0.0 | 0.0 | 0.00 | 0.23 | 0.17 | 1017.7 | ||
| 20260510093518 | 0 | 0.0 | 0.0 | 0.00 | 0.23 | 0.17 | 1017.6 | ||
| 20260510093016 | 0 | 0.0 | 0.0 | 0.00 | 0.23 | 0.17 | 1017.5 | ||
| 20260510092514 | 0 | 0.0 | 0.0 | 0.00 | 0.23 | 0.17 | 1017.4 | ||
| 20260510092012 | 0 | 0.0 | 0.0 | 0.00 | 0.23 | 0.17 | 1017.2 | ||
| 20260510091520 | 0 | 0.0 | 0.0 | 0.00 | 0.23 | 0.17 | 1017.3 | ||
| 20260510091010 | 0 | 0.0 | 0.0 | 0.05 | 0.23 | 0.17 | 1017.2 | ||
| 20260510090507 | 0 | 0.0 | 0.0 | 0.05 | 0.23 | 0.17 | 1017.3 | ||
| 20260510090007 | 0 | 0.0 | 0.0 | 0.05 | 0.23 | 0.17 | 1017.0 | ||
| 20260510085504 | 0 | 0.0 | 0.0 | 0.05 | 0.23 | 0.17 | 1017.0 | ||
| 20260510085003 | 0 | 0.0 | 0.0 | 0.05 | 0.23 | 0.17 | 1017.0 | ||
| 20260510084502 | 0 | 155 | 0.0 | 0.0 | 0.05 | 0.23 | 0.17 | 1016.9 | |
| 20260510084100 | 0 | 155 | 0.0 | 0.0 | 0.05 | 0.23 | 0.17 | 1016.8 | |
| 20260510083600 | 74 | 150 | 0.0 | 0.0 | 0.05 | 0.23 | 0.17 | 72 | 1016.8 |
| 20260510083106 | 74 | 132 | 0.0 | 0.0 | 0.05 | 0.23 | 0.17 | 72 | 1016.8 |
| 20260510082556 | 74 | 117 | 0.0 | 0.0 | 0.05 | 0.23 | 0.17 | 72 | 1016.7 |
| 20260510082054 | 74 | 141 | 0.0 | 0.0 | 0.05 | 0.23 | 0.17 | 72 | 1016.9 |
| 20260510081554 | 74 | 195 | 0.0 | 0.0 | 0.05 | 0.23 | 0.17 | 72 | 1016.8 |
| 20260510081053 | 74 | 228 | 0.0 | 0.0 | 0.00 | 0.18 | 0.12 | 72 | 1016.7 |
| 20260510080553 | 74 | 207 | 0.0 | 0.0 | 0.00 | 0.18 | 0.12 | 72 | 1016.7 |
| 20260510080059 | 74 | 171 | 0.0 | 0.0 | 0.00 | 0.18 | 0.12 | 72 | 1016.6 |
| 20260510075553 | 74 | 172 | 0.0 | 0.0 | 0.00 | 0.18 | 0.12 | 72 | 1016.7 |
| 20260510075050 | 74 | 179 | 0.0 | 0.0 | 0.00 | 0.18 | 0.12 | 72 | 1016.7 |
| 20260510074550 | 74 | 154 | 0.0 | 0.0 | 0.00 | 0.18 | 0.12 | 72 | 1016.7 |
| 20260510074050 | 74 | 155 | 0.0 | 0.0 | 0.00 | 0.18 | 0.12 | 72 | 1016.6 |
| 20260510073549 | 74 | 165 | 0.0 | 0.0 | 0.00 | 0.18 | 0.12 | 73 | 1016.7 |
| 20260510073051 | 74 | 160 | 0.0 | 0.0 | 0.00 | 0.18 | 0.12 | 73 | 1016.7 |
| 20260510072549 | 74 | 222 | 0.0 | 0.0 | 0.00 | 0.18 | 0.12 | 73 | 1016.6 |
| 20260510072048 | 74 | 221 | 0.0 | 0.0 | 0.00 | 0.18 | 0.12 | 73 | 1016.6 |
| 20260510071548 | 74 | 112 | 0.0 | 0.0 | 0.00 | 0.18 | 0.12 | 73 | 1016.7 |
| 20260510071045 | 74 | 210 | 0.0 | 0.0 | 0.00 | 0.18 | 0.12 | 73 | 1016.7 |
| 20260510070546 | 74 | 218 | 0.0 | 0.0 | 0.00 | 0.18 | 0.12 | 73 | 1016.6 |
| 20260510070048 | 74 | 136 | 0.0 | 0.0 | 0.00 | 0.18 | 0.12 | 74 | 1016.7 |
| 20260510065543 | 74 | 167 | 0.0 | 0.0 | 0.00 | 0.18 | 0.12 | 74 | 1016.7 |
| 20260510065042 | 74 | 139 | 0.0 | 0.0 | 0.00 | 0.18 | 0.12 | 74 | 1016.7 |
| 20260510064557 | 74 | 198 | 0.0 | 0.0 | 0.00 | 0.18 | 0.12 | 74 | 1016.8 |
| 20260510064041 | 74 | 148 | 0.0 | 0.0 | 0.00 | 0.18 | 0.12 | 74 | 1016.7 |
| 20260510063539 | 74 | 197 | 0.0 | 0.0 | 0.00 | 0.18 | 0.12 | 74 | 1016.8 |
| 20260510063045 | 74 | 215 | 0.0 | 0.0 | 0.00 | 0.18 | 0.12 | 74 | 1016.8 |
| 20260510062537 | 74 | 145 | 0.0 | 0.0 | 0.00 | 0.18 | 0.12 | 74 | 1016.9 |
| 20260510062039 | 74 | 212 | 0.0 | 0.0 | 0.00 | 0.18 | 0.12 | 74 | 1016.9 |
| 20260510061545 | 74 | 207 | 0.0 | 0.0 | 0.00 | 0.18 | 0.12 | 74 | 1016.9 |
| 20260510061035 | 74 | 130 | 0.0 | 0.0 | 0.00 | 0.18 | 0.12 | 74 | 1016.9 |
| 20260510060534 | 74 | 118 | 0.0 | 0.0 | 0.01 | 0.18 | 0.12 | 74 | 1017.0 |
| 20260510060039 | 74 | 132 | 0.0 | 0.0 | 0.02 | 0.18 | 0.12 | 74 | 1017.2 |
| 20260510055533 | 74 | 174 | 0.0 | 0.0 | 0.03 | 0.18 | 0.12 | 75 | 1017.1 |
| 20260510055031 | 74 | 125 | 0.0 | 0.0 | 0.11 | 0.18 | 0.12 | 74 | 1017.2 |
| 20260510054530 | 74 | 118 | 0.0 | 0.0 | 0.11 | 0.18 | 0.12 | 74 | 1017.2 |
| 20260510054029 | 74 | 220 | 0.0 | 0.0 | 0.11 | 0.18 | 0.12 | 74 | 1017.1 |
| 20260510053528 | 74 | 215 | 0.0 | 0.0 | 0.11 | 0.18 | 0.12 | 74 | 1017.2 |
| 20260510053027 | 74 | 178 | 0.0 | 0.0 | 0.11 | 0.18 | 0.12 | 74 | 1017.2 |
| 20260510052525 | 74 | 216 | 0.0 | 0.0 | 0.12 | 0.18 | 0.12 | 73 | 1017.3 |
| 20260510052024 | 74 | 219 | 0.0 | 0.0 | 0.12 | 0.18 | 0.12 | 72 | 1017.3 |
| 20260510051523 | 74 | 120 | 0.0 | 0.0 | 0.12 | 0.18 | 0.12 | 72 | 1017.3 |
| 20260510051021 | 74 | 120 | 0.0 | 0.0 | 0.12 | 0.18 | 0.12 | 71 | 1017.3 |
| 20260510050522 | 75 | 125 | 0.0 | 0.0 | 0.11 | 0.17 | 0.11 | 70 | 1017.4 |
| 20260510050019 | 75 | 212 | 0.0 | 0.0 | 0.09 | 0.15 | 0.09 | 69 | 1017.4 |
| 20260510045518 | 75 | 203 | 0.0 | 0.0 | 0.07 | 0.13 | 0.07 | 68 | 1017.5 |
| 20260510045020 | 76 | 169 | 0.0 | 0.0 | 0.01 | 0.07 | 0.01 | 67 | 1017.6 |
| 20260510044514 | 76 | 163 | 0.0 | 0.0 | 0.01 | 0.07 | 0.01 | 66 | 1017.5 |
| 20260510044013 | 76 | 179 | 0.0 | 0.0 | 0.01 | 0.07 | 0.01 | 66 | 1017.5 |
| 20260510043512 | 76 | 174 | 0.0 | 0.0 | 0.01 | 0.07 | 0.01 | 66 | 1017.6 |
| 20260510043012 | 76 | 195 | 0.0 | 0.0 | 0.00 | 0.06 | 0.00 | 66 | 1017.4 |
| 20260510042510 | 76 | 127 | 0.0 | 0.0 | 0.00 | 0.06 | 0.00 | 66 | 1017.5 |
| 20260510042010 | 76 | 181 | 0.0 | 0.0 | 0.00 | 0.06 | 0.00 | 65 | 1017.5 |
| 20260510041508 | 76 | 147 | 0.0 | 0.0 | 0.00 | 0.06 | 0.00 | 65 | 1017.5 |
| 20260510041008 | 76 | 131 | 0.0 | 0.0 | 0.00 | 0.06 | 0.00 | 65 | 1017.6 |
| 20260510040506 | 76 | 136 | 0.0 | 0.0 | 0.00 | 0.06 | 0.00 | 65 | 1017.7 |
| 20260510040006 | 76 | 132 | 0.0 | 0.0 | 0.00 | 0.06 | 0.00 | 65 | 1017.7 |
| 20260510035503 | 76 | 114 | 0.0 | 0.0 | 0.00 | 0.06 | 0.06 | 65 | 1017.8 |
| 20260510035002 | 76 | 145 | 0.0 | 0.0 | 0.00 | 0.06 | 0.06 | 65 | 1017.8 |
| 20260510034502 | 76 | 123 | 0.0 | 0.0 | 0.00 | 0.06 | 0.06 | 65 | 1017.9 |
| 20260510034002 | 76 | 85 | 0.0 | 0.0 | 0.00 | 0.06 | 0.06 | 65 | 1017.9 |
| 20260510033602 | 76 | 128 | 0.0 | 0.0 | 0.00 | 0.06 | 0.06 | 65 | 1017.9 |
| 20260510033001 | 76 | 144 | 0.0 | 0.0 | 0.00 | 0.06 | 0.06 | 66 | 1018.0 |
| 20260510032558 | 75 | 200 | 0.0 | 0.0 | 0.00 | 0.06 | 0.06 | 66 | 1018.1 |
| 20260510032102 | 75 | 139 | 0.0 | 0.0 | 0.00 | 0.06 | 0.06 | 66 | 1018.2 |
| 20260510031609 | 76 | 224 | 0.0 | 0.0 | 0.00 | 0.06 | 0.06 | 66 | 1018.2 |
| 20260510031057 | 76 | 224 | 0.0 | 0.0 | 0.00 | 0.06 | 0.06 | 66 | 1018.2 |
| 20260510030557 | 76 | 199 | 0.0 | 0.0 | 0.00 | 0.06 | 0.06 | 66 | 1018.2 |
| 20260510030105 | 76 | 174 | 0.0 | 0.0 | 0.00 | 0.06 | 0.06 | 66 | 1018.1 |
| 20260510025556 | 76 | 164 | 0.0 | 0.0 | 0.00 | 0.19 | 0.06 | 66 | 1018.1 |
| 20260510025056 | 76 | 217 | 0.0 | 0.0 | 0.00 | 0.19 | 0.06 | 66 | 1018.1 |
| 20260510024556 | 76 | 138 | 0.0 | 0.0 | 0.00 | 0.19 | 0.06 | 66 | 1018.1 |
| 20260510024053 | 75 | 125 | 0.0 | 0.0 | 0.00 | 0.19 | 0.06 | 67 | 1018.2 |
| 20260510023556 | 75 | 146 | 0.0 | 0.0 | 0.00 | 0.19 | 0.06 | 67 | 1018.1 |
| 20260510023054 | 75 | 134 | 0.0 | 0.0 | 0.00 | 0.19 | 0.06 | 68 | 1018.2 |
| 20260510022557 | 75 | 161 | 0.0 | 0.0 | 0.00 | 0.19 | 0.06 | 68 | 1018.1 |
| 20260510022056 | 75 | 200 | 0.0 | 0.0 | 0.00 | 0.19 | 0.06 | 69 | 1018.1 |
| 20260510021551 | 75 | 203 | 0.0 | 0.0 | 0.00 | 0.19 | 0.06 | 69 | 1018.1 |
| 20260510021050 | 75 | 203 | 0.0 | 0.0 | 0.00 | 0.19 | 0.06 | 69 | 1018.2 |
| 20260510020550 | 75 | 217 | 0.0 | 0.0 | 0.00 | 0.19 | 0.06 | 68 | 1018.1 |
| 20260510020052 | 76 | 144 | 0.0 | 0.0 | 0.00 | 0.19 | 0.06 | 68 | 1018.1 |
| 20260510015549 | 76 | 162 | 0.0 | 0.0 | 0.00 | 0.19 | 0.06 | 68 | 1018.1 |
| 20260510015048 | 76 | 146 | 0.0 | 0.0 | 0.00 | 0.19 | 0.06 | 68 | 1018.2 |
| 20260510014547 | 76 | 171 | 0.0 | 0.0 | 0.00 | 0.19 | 0.06 | 68 | 1018.2 |
| 20260510014148 | 76 | 181 | 0.0 | 0.0 | 0.00 | 0.19 | 0.06 | 68 | 1018.2 |
| 20260510013547 | 76 | 123 | 0.0 | 0.0 | 0.00 | 0.19 | 0.06 | 69 | 1018.2 |
| 20260510013052 | 76 | 116 | 0.0 | 0.0 | 0.00 | 0.19 | 0.06 | 69 | 1018.2 |
| 20260510012545 | 76 | 137 | 0.0 | 0.0 | 0.00 | 0.19 | 0.06 | 69 | 1018.1 |
| 20260510012044 | 76 | 124 | 0.0 | 0.0 | 0.00 | 0.19 | 0.06 | 69 | 1018.1 |
| 20260510011546 | 76 | 138 | 0.0 | 0.0 | 0.00 | 0.19 | 0.06 | 70 | 1017.9 |
| 20260510011043 | 76 | 153 | 0.0 | 0.0 | 0.00 | 0.19 | 0.06 | 71 | 1018.0 |
| 20260510010543 | 75 | 118 | 0.0 | 0.0 | 0.00 | 0.19 | 0.06 | 71 | 1017.9 |
| 20260510010043 | 75 | 101 | 0.0 | 0.0 | 0.00 | 0.19 | 0.06 | 71 | 1017.9 |
| 20260510005543 | 76 | 110 | 0.0 | 0.0 | 0.00 | 0.19 | 0.06 | 72 | 1017.9 |
| 20260510005043 | 76 | 143 | 0.0 | 0.0 | 0.00 | 0.19 | 0.06 | 72 | 1017.8 |
| 20260510004542 | 76 | 137 | 0.0 | 0.0 | 0.00 | 0.19 | 0.06 | 72 | 1017.8 |
| 20260510004042 | 76 | 183 | 0.0 | 0.0 | 0.00 | 0.19 | 0.06 | 72 | 1017.8 |
| 20260510003551 | 76 | 224 | 0.0 | 0.0 | 0.00 | 0.19 | 0.06 | 72 | 1017.7 |
| 20260510003053 | 76 | 162 | 0.0 | 0.0 | 0.00 | 0.19 | 0.06 | 72 | 1017.6 |
| 20260510002542 | 76 | 211 | 0.0 | 0.0 | 0.03 | 0.19 | 0.06 | 71 | 1017.5 |
| 20260510002040 | 76 | 187 | 0.0 | 0.0 | 0.03 | 0.19 | 0.06 | 71 | 1017.6 |
| 20260510001540 | 76 | 220 | 0.0 | 0.0 | 0.03 | 0.19 | 0.06 | 71 | 1017.5 |
| 20260510001043 | 76 | 210 | 0.0 | 0.0 | 0.03 | 0.19 | 0.06 | 70 | 1017.5 |
| 20260510000539 | 76 | 219 | 0.0 | 0.0 | 0.03 | 0.19 | 0.06 | 69 | 1017.4 |
| 20260510000039 | 76 | 211 | 0.0 | 0.0 | 0.03 | 0.19 | 0.06 | 69 | 1017.3 |
| 20260509235538 | 76 | 115 | 0.0 | 0.0 | 0.03 | 0.19 | 0.06 | 69 | 1017.2 |
| 20260509235038 | 76 | 149 | 0.0 | 0.0 | 0.03 | 0.19 | 0.06 | 68 | 1017.2 |
| 20260509234555 | 76 | 153 | 0.0 | 0.0 | 0.03 | 0.19 | 0.06 | 68 | 1017.1 |
| 20260509234037 | 76 | 92 | 0.0 | 0.0 | 0.03 | 0.19 | 0.06 | 67 | 1017.0 |
| 20260509233536 | 77 | 86 | 0.0 | 0.0 | 0.03 | 0.19 | 0.06 | 66 | 1017.0 |
| 20260509233043 | 78 | 66 | 0.0 | 0.0 | 0.03 | 0.19 | 0.06 | 65 | 1017.0 |
| 20260509232535 | 77 | 118 | 0.0 | 0.0 | 0.00 | 0.16 | 0.03 | 65 | 1016.8 |
| 20260509232033 | 77 | 87 | 0.0 | 0.0 | 0.00 | 0.16 | 0.03 | 65 | 1016.8 |
| 20260509231547 | 77 | 130 | 0.0 | 0.0 | 0.00 | 0.16 | 0.03 | 65 | 1016.7 |
| 20260509231034 | 77 | 147 | 0.0 | 0.0 | 0.00 | 0.16 | 0.03 | 64 | 1016.6 |
| 20260509230535 | 77 | 155 | 0.0 | 0.0 | 0.00 | 0.16 | 0.03 | 64 | 1016.7 |
| 20260509230035 | 78 | 123 | 0.0 | 0.0 | 0.00 | 0.16 | 0.03 | 64 | 1016.6 |
| 20260509225535 | 78 | 108 | 0.0 | 0.0 | 0.00 | 0.16 | 0.03 | 64 | 1016.6 |
| 20260509225035 | 78 | 134 | 0.0 | 0.0 | 0.00 | 0.16 | 0.03 | 64 | 1016.7 |
| 20260509224534 | 78 | 114 | 0.0 | 0.0 | 0.00 | 0.16 | 0.03 | 64 | 1016.6 |
| 20260509224033 | 78 | 122 | 0.0 | 0.0 | 0.00 | 0.16 | 0.03 | 64 | 1016.5 |
| 20260509223532 | 78 | 158 | 0.0 | 0.0 | 0.00 | 0.16 | 0.03 | 64 | 1016.5 |
| 20260509223035 | 78 | 170 | 0.0 | 0.0 | 0.00 | 0.16 | 0.03 | 63 | 1016.4 |
| 20260509222533 | 78 | 101 | 0.0 | 0.0 | 0.00 | 0.16 | 0.03 | 63 | 1016.5 |
| 20260509222035 | 78 | 104 | 0.0 | 0.0 | 0.01 | 0.16 | 0.03 | 63 | 1016.4 |
| 20260509221531 | 78 | 103 | 0.0 | 0.0 | 0.03 | 0.16 | 0.03 | 63 | 1016.4 |
| 20260509221034 | 78 | 106 | 0.0 | 0.0 | 0.03 | 0.16 | 0.03 | 63 | 1016.4 |
| 20260509220530 | 78 | 143 | 0.0 | 0.0 | 0.03 | 0.16 | 0.03 | 64 | 1016.5 |
| 20260509220030 | 78 | 96 | 0.0 | 0.0 | 0.03 | 0.16 | 0.03 | 64 | 1016.4 |
| 20260509215532 | 78 | 122 | 0.0 | 0.0 | 0.03 | 0.16 | 0.03 | 64 | 1016.4 |
| 20260509215030 | 78 | 127 | 0.0 | 0.0 | 0.03 | 0.16 | 0.03 | 64 | 1016.4 |
| 20260509214530 | 78 | 120 | 0.0 | 0.0 | 0.03 | 0.16 | 0.03 | 64 | 1016.4 |
| 20260509214029 | 78 | 91 | 0.0 | 0.0 | 0.03 | 0.16 | 0.03 | 64 | 1016.3 |
| 20260509213528 | 79 | 129 | 0.0 | 0.0 | 0.03 | 0.16 | 0.03 | 63 | 1016.2 |
| 20260509213029 | 79 | 157 | 0.0 | 0.0 | 0.03 | 0.16 | 0.03 | 63 | 1016.2 |
| 20260509212527 | 80 | 143 | 0.0 | 0.0 | 0.03 | 0.16 | 0.03 | 62 | 1016.1 |
| 20260509212028 | 82 | 107 | 0.0 | 0.0 | 0.02 | 0.15 | 0.02 | 59 | 1016.1 |
| 20260509211528 | 84 | 89 | 0.0 | 0.0 | 0.00 | 0.13 | 0.00 | 57 | 1015.8 |
| 20260509211027 | 83 | 96 | 0.0 | 0.0 | 0.00 | 0.13 | 0.00 | 57 | 1015.8 |
| 20260509210526 | 83 | 82 | 0.0 | 0.0 | 0.00 | 0.13 | 0.00 | 57 | 1015.8 |
| 20260509210029 | 83 | 105 | 0.0 | 0.0 | 0.00 | 0.13 | 0.00 | 58 | 1015.9 |
| 20260509205526 | 83 | 106 | 0.0 | 0.0 | 0.00 | 0.13 | 0.00 | 57 | 1016.0 |
| 20260509205025 | 83 | 77 | 0.0 | 0.0 | 0.00 | 0.13 | 0.00 | 58 | 1016.0 |
| 20260509204529 | 83 | 181 | 0.0 | 0.0 | 0.00 | 0.13 | 0.00 | 58 | 1016.1 |